Location: Leo
(52.0556°N, 112.3605°W)
Time: 10:25:29
(UTC+00:00)

XW-2B - Visible Passes

Search period start: 08 December 2023 00:00
Search period end: 18 December 2023 00:00
Orbit: 455 x 464 km, 97.5° (Epoch: 07 December)

Date Brightness Start Highest point End Pass type
(mag) Time Alt. Az. Time Alt. Az. Time Alt. Az.
08 Dec ? 00:04:23 10° ESE 00:06:52 19° ENE 00:09:22 10° NNE visible
08 Dec ? 01:36:14 10° S 01:39:33 42° W 01:42:55 10° NNW visible
08 Dec ? 14:26:37 10° NNE 14:30:07 88° WNW 14:33:36 10° SSW visible
09 Dec ? 01:04:08 10° SSE 01:07:36 80° ENE 01:11:07 10° NNW visible
09 Dec ? 13:54:50 10° NNE 13:58:08 38° E 14:01:24 10° SSE visible
10 Dec ? 00:32:34 10° SE 00:35:46 34° ENE 00:38:58 10° N visible
10 Dec ? 02:06:06 10° SW 02:08:48 21° W 02:11:32 10° NW visible
10 Dec ? 13:23:31 10° NE 13:25:58 18° E 13:28:24 10° SE visible
11 Dec ? 00:01:40 10° ESE 00:04:01 17° ENE 00:06:24 10° NNE visible
11 Dec ? 01:33:18 10° S 01:36:40 46° W 01:40:04 10° NNW visible
11 Dec ? 14:23:41 10° NNE 14:27:12 84° ESE 14:30:39 10° SSW visible
12 Dec ? 01:01:11 10° SSE 01:04:38 73° ENE 01:08:08 10° N visible
12 Dec ? 02:37:09 10° WSW 02:38:03 11° W 02:38:57 10° WNW visible
12 Dec ? 13:51:52 10° NNE 13:55:06 35° E 13:58:18 10° SSE visible
13 Dec ? 00:29:36 10° SE 00:32:43 32° ENE 00:35:52 10° N visible
13 Dec ? 02:02:54 10° SSW 02:05:43 23° W 02:08:33 10° NW visible
13 Dec ? 13:20:33 10° NE 13:22:50 16° E 13:25:06 10° SE visible
13 Dec ? 23:58:41 10° E 00:00:55 16° ENE 00:03:08 10° NNE visible
14 Dec ? 01:30:07 10° S 01:33:30 51° W 01:36:56 10° NNW visible
14 Dec ? 14:20:29 10° NNE 14:23:59 77° ESE 14:27:26 10° S visible
15 Dec ? 00:57:57 10° SSE 01:01:24 66° ENE 01:04:53 10° N visible
15 Dec ? 02:33:26 10° WSW 02:34:45 12° W 02:36:06 10° WNW visible
15 Dec ? 13:48:37 10° NNE 13:51:47 32° E 13:54:55 10° SSE visible
16 Dec ? 00:26:22 10° SE 00:29:25 29° ENE 00:32:29 10° N visible
16 Dec ? 01:59:26 10° SSW 02:02:21 25° W 02:05:18 10° NW visible
16 Dec ? 13:17:20 10° NE 13:19:25 15° E 13:21:29 10° SE visible
16 Dec ? 14:49:15 10° N 14:52:39 49° WNW 14:55:59 10° SSW visible
16 Dec ? 23:55:30 10° E 23:57:32 15° ENE 23:59:35 10° NNE visible
17 Dec ? 01:26:39 10° S 01:30:04 57° W 01:33:32 10° NNW visible
17 Dec ? 14:17:02 10° NNE 14:20:30 69° ESE 14:23:56 10° S visible
